Home   Weather   Maldonado   Past weeks

Flag for Uruguay Past Weather in Maldonado, Uruguay — Yesterday and Last 2 Weeks

Now
73 °F

Sunny.


Feels Like: 77 °F
Forecast: N/A
Wind: 12 mph from South

Location: Capitan Corbeta

Current Time: Dec 9, 2016 at 6:23:38 pm

Latest Report: Dec 9, 2016 at 6:00 pm


Visibility: 10 mi

Pressure: 29.80 "Hg

Humidity: 47%

Dew Point: 52 °F

Location of MaldonadoLocation

Past Weather in Maldonado — Graph

°F

Maldonado Temperature Yesterday

Maximum temperature yesterday: 66 °F (at 10:00 am)
Minimum temperature yesterday: 57 °F (at 8:00 pm)
Average temperature yesterday: 63 °F

High & Low Weather Summary for the Past Weeks

 TemperatureHumidityPressure
High88 °F (Dec 2, 1:00 pm)100% (Nov 29, 3:00 am)30.21 "Hg (Nov 29, 3:00 am)
Low46 °F (Dec 9, 5:00 am)25% (Dec 9, 1:00 pm)29.65 "Hg (Dec 5, 5:00 pm)
Average68 °F73%29.92 "Hg
* Reported Nov 24 6:00 pm — Dec 9 5:00 pm, Maldonado, Weather by CustomWeather, © 2016

Note: Actual official high and low records may vary slightly from our data, if they occured in-between our weather recording intervals... More about our weather records

Advertising

Maldonado Weather History for the Previous 24 Hours

Scroll right to see more
 ConditionsComfort  
Time TempWeatherWind HumidityBarometerVisibility
5:00 pm
Fri, Dec 9
73 °FSunny.12 mph47%29.80 "Hg10 mi
4:00 pm72 °FSunny.15 mph50%29.86 "Hg10 mi
3:00 pm72 °FSunny.15 mph50%29.86 "Hg10 mi
2:00 pm73 °FSunny.14 mph44%29.89 "Hg10 mi
1:00 pm75 °FSunny.8 mph25%29.92 "Hg10 mi
12:00 pm72 °FPassing clouds.9 mph31%29.95 "HgN/A
11:00 am68 °FPassing clouds.6 mph38%29.95 "HgN/A
10:00 am63 °FPassing clouds.6 mph49%29.98 "HgN/A
9:00 am61 °FSunny.7 mph55%29.98 "Hg10 mi
8:00 am59 °FPassing clouds.7 mph63%29.98 "HgN/A
7:00 am52 °FPassing clouds.5 mph82%29.98 "HgN/A
6:00 am46 °FPassing clouds.6 mph93%29.98 "HgN/A
5:00 am46 °FPassing clouds.5 mph93%29.95 "HgN/A
4:00 am48 °FClear.5 mph94%29.95 "Hg10 mi
3:00 am50 °FClear.6 mph88%29.95 "Hg10 mi
2:00 am50 °FPassing clouds.7 mph94%29.98 "HgN/A
1:00 am52 °FPassing clouds.6 mph82%29.98 "HgN/A
12:00 am55 °FPassing clouds.6 mph72%30.01 "HgN/A
11:00 pm
Thu, Dec 8
57 °FPassing clouds.9 mph67%30.04 "HgN/A
10:00 pm57 °FPassing clouds.10 mph63%30.01 "HgN/A
9:00 pm57 °FPassing clouds.10 mph59%30.01 "HgN/A
8:00 pm57 °FPassing clouds.8 mph63%30.01 "HgN/A
7:00 pm61 °FPassing clouds.14 mph55%29.98 "HgN/A
6:00 pm63 °FScattered clouds.18 mph56%29.98 "HgN/A
Weather by CustomWeather, © 2016

See weather overviewHow to use our weather pages